Weather reports worldwide

Advertisment
Mte.Calamita, Italy (16197): temperature & dewpoint: 03.08.2020 22:00:00 - 09.08.2020 22:00:00 (CEST)Mte.Calamita, Italy (16197): wind speed: 03.08.2020 22:00:00 - 09.08.2020 22:00:00 (CEST)Mte.Calamita, Italy (16197): wind direction: 03.08.2020 22:00:00 - 09.08.2020 22:00:00 (CEST)Mte.Calamita, Italy (16197): reduced air pressure: 03.08.2020 22:00:00 - 09.08.2020 22:00:00 (CEST)Mte.Calamita, Italy (16197): visibility: 03.08.2020 22:00:00 - 09.08.2020 22:00:00 (CEST)Mte.Calamita, Italy (16197): sunshine duration: 03.08.2020 22:00:00 - 09.08.2020 22:00:00 (CEST)
Date & Time tt [°C] td [°C] ff [km/h] ff [kn] dd ppp [hPa] vv [km] sd [min]
09.08.2020 22:00:00 - - - - - - - -
09.08.2020 21:00:00 - - - - - - - -
09.08.2020 20:00:00 28,6 17,2 21 11 N 1012,4 20 36
09.08.2020 19:00:00 30,0 17,0 18 10 N - 10 -
09.08.2020 18:00:00 31,0 18,0 18 10 N - 10 -
09.08.2020 17:00:00 32,4 18,2 21 11 N 1012,8 20 60
09.08.2020 16:00:00 33,0 19,0 9 5 N - 10 -
09.08.2020 15:00:00 33,0 20,0 11 6 N - 10 -
09.08.2020 14:00:00 33,6 19,7 0 0 N 1013,5 20 60
09.08.2020 13:00:00 33,0 18,0 0 0 N - 10 -
09.08.2020 12:00:00 31,0 18,0 8 4 SSE - 10 -
09.08.2020 11:00:00 29,6 18,7 4 2 NNE 1014,9 20 60
09.08.2020 10:00:00 28,0 18,0 5 3 NNE - 10 -
09.08.2020 09:00:00 26,0 18,0 8 4 NNE - 10 -
09.08.2020 08:00:00 25,0 16,7 8 4 NNE 1015,4 20 6
09.08.2020 07:00:00 25,0 17,0 9 5 NNE - 10 -
09.08.2020 06:00:00 - - - - - - - -
09.08.2020 05:00:00 - - - - - - - -
09.08.2020 04:00:00 - - - - - - - -
09.08.2020 03:00:00 - - - - - - - -
09.08.2020 02:00:00 - - - - - - - -
09.08.2020 01:00:00 - - - - - - - -
09.08.2020 00:00:00 - - - - - - - -
08.08.2020 23:00:00 - - - - - - - -
08.08.2020 22:00:00 - - - - - - - -
08.08.2020 21:00:00 - - - - - - - -
08.08.2020 20:00:00 27,4 19,0 28 15 N 1013,6 20 30
08.08.2020 19:00:00 29,0 19,0 34 18 N - 10 -
08.08.2020 18:00:00 29,0 19,0 34 18 N - 10 -
08.08.2020 17:00:00 31,0 18,4 34 18 N 1013,9 20 60
08.08.2020 16:00:00 31,0 19,0 31 17 N - 10 -
08.08.2020 15:00:00 31,0 19,0 29 16 N - 10 -
08.08.2020 14:00:00 31,0 19,4 29 16 N 1014,8 20 60
08.08.2020 13:00:00 30,0 19,0 24 13 NNE - 10 -
08.08.2020 12:00:00 29,0 18,0 22 12 N - 10 -
08.08.2020 11:00:00 27,6 17,8 28 15 N 1016,2 25 60
08.08.2020 10:00:00 26,0 18,0 16 9 N - 10 -
08.08.2020 09:00:00 24,0 20,0 21 11 N - 10 -
08.08.2020 08:00:00 22,6 22,1 16 9 N 1016,8 20 6
08.08.2020 07:00:00 22,0 21,0 13 7 N - 10 -
08.08.2020 06:00:00 - - - - - - - -
08.08.2020 05:00:00 - - - - - - - -
08.08.2020 04:00:00 - - - - - - - -
08.08.2020 03:00:00 - - - - - - - -
08.08.2020 02:00:00 - - - - - - - -
08.08.2020 01:00:00 - - - - - - - -
08.08.2020 00:00:00 - - - - - - - -
07.08.2020 23:00:00 - - - - - - - -
07.08.2020 22:00:00 - - - - - - - -
07.08.2020 21:00:00 - - - - - - - -
07.08.2020 20:00:00 27,0 18,6 28 15 N 1014,3 20 42
07.08.2020 19:00:00 29,0 18,0 28 15 N - 10 -
07.08.2020 18:00:00 30,0 17,0 28 15 N - 10 -
07.08.2020 17:00:00 30,0 17,5 34 18 N 1014,0 25 60
07.08.2020 16:00:00 29,0 19,0 34 18 N - 10 -
07.08.2020 15:00:00 30,0 19,0 24 13 NNE - 10 -
07.08.2020 14:00:00 29,2 19,2 15 8 NNE 1015,1 30 60
07.08.2020 13:00:00 29,0 19,0 9 5 N - 10 -
07.08.2020 12:00:00 28,0 18,0 9 5 N - 10 -
07.08.2020 11:00:00 25,6 18,8 13 7 NNE 1015,7 30 60
07.08.2020 10:00:00 24,0 18,0 11 6 N - 10 -
07.08.2020 09:00:00 24,0 18,0 13 7 NNE - 10 -
07.08.2020 08:00:00 21,8 17,4 16 9 NNE 1016,0 25 30
07.08.2020 07:00:00 21,0 17,0 16 9 NNE - 10 -
07.08.2020 06:00:00 - - - - - - - -
07.08.2020 05:00:00 - - - - - - - -
07.08.2020 04:00:00 - - - - - - - -
07.08.2020 03:00:00 - - - - - - - -
07.08.2020 02:00:00 - - - - - - - -
07.08.2020 01:00:00 - - - - - - - -
07.08.2020 00:00:00 - - - - - - - -
06.08.2020 23:00:00 - - - - - - - -
06.08.2020 22:00:00 - - - - - - - -
06.08.2020 21:00:00 - - - - - - - -
06.08.2020 20:00:00 25,0 19,4 21 11 NNE 1012,8 30 30
06.08.2020 19:00:00 27,0 20,0 28 15 N - 10 -
06.08.2020 18:00:00 28,0 19,0 24 13 N - 10 -
06.08.2020 17:00:00 28,2 18,0 28 15 N 1012,2 30 60
06.08.2020 16:00:00 28,0 19,0 21 11 N - 10 -
06.08.2020 15:00:00 28,0 20,0 21 11 N - 10 -
06.08.2020 14:00:00 28,2 18,9 24 13 N 1013,0 30 60
06.08.2020 13:00:00 27,0 18,0 24 13 N - 10 -
06.08.2020 12:00:00 26,0 18,0 18 10 N - 10 -
06.08.2020 11:00:00 25,2 18,2 18 10 N 1013,4 30 60
06.08.2020 10:00:00 23,0 17,0 18 10 N - 10 -
06.08.2020 09:00:00 21,0 17,0 18 10 N - 10 -
06.08.2020 08:00:00 20,0 15,9 18 10 N 1013,4 30 30
06.08.2020 07:00:00 19,0 16,0 22 12 N - 10 -
06.08.2020 06:00:00 - - - - - - - -
06.08.2020 05:00:00 - - - - - - - -
06.08.2020 04:00:00 - - - - - - - -
06.08.2020 03:00:00 - - - - - - - -
06.08.2020 02:00:00 - - - - - - - -
06.08.2020 01:00:00 - - - - - - - -
06.08.2020 00:00:00 - - - - - - - -
05.08.2020 23:00:00 - - - - - - - -
05.08.2020 22:00:00 - - - - - - - -
05.08.2020 21:00:00 - - - - - - - -
05.08.2020 20:00:00 24,0 19,7 22 12 NNE 1009,8 70 0
05.08.2020 19:00:00 25,0 17,0 22 12 N - 10 -
05.08.2020 18:00:00 26,0 17,0 26 14 N - 10 -
05.08.2020 17:00:00 23,8 16,4 28 15 N 1009,7 70 60
05.08.2020 16:00:00 27,0 18,0 28 15 NNW - 10 -
05.08.2020 15:00:00 28,0 16,0 18 10 NNE - 10 -
05.08.2020 14:00:00 28,0 16,0 16 9 N 1009,1 70 60
05.08.2020 13:00:00 27,0 15,0 15 8 N - 10 -
05.08.2020 12:00:00 25,0 16,0 13 7 N - 10 -
05.08.2020 11:00:00 24,0 16,3 15 8 N 1009,5 70 60
05.08.2020 10:00:00 22,0 16,0 18 10 N - 10 -
05.08.2020 09:00:00 20,0 15,0 22 12 N - 10 -
05.08.2020 08:00:00 19,0 14,1 29 16 NNE 1008,3 70 0
05.08.2020 07:00:00 18,0 15,0 11 6 NNE - 10 -
05.08.2020 06:00:00 - - - - - - - -
05.08.2020 05:00:00 - - - - - - - -
05.08.2020 04:00:00 - - - - - - - -
05.08.2020 03:00:00 - - - - - - - -
05.08.2020 02:00:00 - - - - - - - -
05.08.2020 01:00:00 - - - - - - - -
05.08.2020 00:00:00 - - - - - - - -
04.08.2020 23:00:00 - - - - - - - -
04.08.2020 22:00:00 - - - - - - - -
04.08.2020 21:00:00 - - - - - - - -
04.08.2020 20:00:00 19,8 16,7 15 8 N 1006,1 15 0
04.08.2020 19:00:00 20,0 16,0 15 8 N - 10 -
04.08.2020 18:00:00 18,0 18,0 28 15 N - 10 -
04.08.2020 17:00:00 21,2 17,0 34 18 N 1005,4 30 0
04.08.2020 16:00:00 26,0 12,0 37 20 N - 10 -
04.08.2020 15:00:00 26,0 12,0 44 24 N - 10 -
04.08.2020 14:00:00 24,4 13,3 41 22 NNW 1004,2 70 60
04.08.2020 13:00:00 26,0 13,0 44 24 N - 10 -
04.08.2020 12:00:00 25,0 11,0 29 16 NNW - 10 -
04.08.2020 11:00:00 24,0 13,5 26 14 NNW 1002,8 70 60
04.08.2020 10:00:00 23,0 16,0 22 12 WNW - 10 -
04.08.2020 09:00:00 22,0 16,0 18 10 NNW - 10 -
04.08.2020 08:00:00 21,0 16,6 22 12 N 1002,6 50 0
04.08.2020 07:00:00 21,0 19,0 22 12 NW - 10 -
04.08.2020 06:00:00 - - - - - - - -
04.08.2020 05:00:00 - - - - - - - -
04.08.2020 04:00:00 - - - - - - - -
04.08.2020 03:00:00 - - - - - - - -
04.08.2020 02:00:00 - - - - - - - -
04.08.2020 01:00:00 - - - - - - - -
04.08.2020 00:00:00 - - - - - - - -
03.08.2020 23:00:00 - - - - - - - -
03.08.2020 22:00:00 - - - - - - - -

tt = temperature
td = dewpoint
ff = wind speed
dd = wind direction
ppp = reduced air pressure
vv = visibility
sd = sunshine duration

Next stations